Tracking 21611 objects as of 21-Oct-2020
HD Live streaming from Space Station
objects crossing your sky now

STARLINK-1748

Track STARLINK-1748 now!
10-day predictions
STARLINK-1748 is classified as:


NORAD ID: 46570
Int'l Code: 2020-070AQ
Perigee: 301.7 km
Apogee: 302.8 km
Inclination: 53.0 °
Period: 90.4 minutes
Semi major axis: 6673 km
RCS: Unknown
Launch date: October 6, 2020
Source: United States (US)
Launch site: AIR FORCE EASTERN TEST RANGE (AFETR)
aabbcc
Your satellite tracking list
Your tracking list is empty




NASA's NSSDC Master Catalog

Two Line Element Set (TLE):
1 46570U 20070AQ  20294.91668981 -.01164380 +40551-3 -33290-2 0  9998
2 46570 052.9916 009.9918 0000882 007.6811 188.6019 15.92564037001830
Source of the keplerian elements: AFSPC